TimeMST,TemperatureF,Dew PointF,Humidity,Sea Level PressureIn,VisibilityMPH,Wind Direction,Wind SpeedMPH,Gust SpeedMPH,PrecipitationIn,Events,Conditions,WindDirDegrees,DateUTC
12:53 AM,14.0,10.0,84,29.92,10.0,NW,3.5,-,N/A,,Clear,310,2013-01-10 07:53:00
1:53 AM,18.0,12.0,78,29.88,10.0,Variable,4.6,-,N/A,,Clear,0,2013-01-10 08:53:00
2:53 AM,16.0,12.0,84,29.86,10.0,West,6.9,-,N/A,,Clear,270,2013-01-10 09:53:00
3:53 AM,17.1,12.9,84,29.81,10.0,WNW,8.1,-,N/A,,Clear,300,2013-01-10 10:53:00
4:53 AM,17.1,12.0,81,29.79,10.0,North,3.5,-,N/A,,Clear,350,2013-01-10 11:53:00
5:53 AM,17.1,12.0,81,29.78,10.0,NNE,3.5,-,N/A,,Clear,30,2013-01-10 12:53:00
6:53 AM,18.0,12.9,81,29.78,10.0,West,13.8,-,N/A,,Clear,270,2013-01-10 13:53:00
7:53 AM,21.0,14.0,74,29.77,10.0,WSW,6.9,-,N/A,,Clear,240,2013-01-10 14:53:00
8:53 AM,19.9,12.9,74,29.75,10.0,NW,8.1,-,N/A,,Clear,320,2013-01-10 15:53:00
9:53 AM,30.9,18.0,59,29.66,10.0,South,11.5,-,N/A,,Clear,170,2013-01-10 16:53:00
10:53 AM,35.6,19.4,52,29.56,10.0,South,13.8,-,N/A,,Clear,180,2013-01-10 17:53:00
11:53 AM,35.1,19.0,52,29.58,10.0,WSW,9.2,-,N/A,,Clear,250,2013-01-10 18:53:00
12:53 PM,37.0,19.0,48,29.58,10.0,SW,8.1,-,N/A,,Clear,220,2013-01-10 19:53:00
1:53 PM,37.9,21.0,51,29.55,10.0,SSW,9.2,-,N/A,,Clear,200,2013-01-10 20:53:00
2:53 PM,39.9,21.0,47,29.55,10.0,SSW,5.8,-,N/A,,Clear,210,2013-01-10 21:53:00
3:53 PM,39.9,21.9,49,29.52,10.0,SSW,8.1,-,N/A,,Clear,200,2013-01-10 22:53:00
4:53 PM,37.0,23.0,57,29.52,10.0,South,10.4,-,N/A,,Clear,170,2013-01-10 23:53:00
5:53 PM,36.0,21.0,55,29.51,10.0,South,15.0,-,N/A,,Clear,170,2013-01-11 00:53:00
6:53 PM,34.0,19.9,56,29.50,10.0,South,16.1,-,N/A,,Clear,170,2013-01-11 01:53:00
7:53 PM,33.1,19.0,56,29.48,10.0,South,19.6,-,N/A,,Clear,170,2013-01-11 02:53:00
8:53 PM,30.9,18.0,59,29.48,10.0,South,19.6,27.6,N/A,,Clear,190,2013-01-11 03:53:00
9:53 PM,35.6,21.2,56,29.38,10.0,South,16.1,28.8,N/A,,Overcast,190,2013-01-11 04:53:00
10:53 PM,33.1,21.0,61,29.38,10.0,SSW,16.1,25.3,N/A,,Clear,200,2013-01-11 05:53:00
11:53 PM,30.0,18.0,61,29.37,10.0,SSE,9.2,-,N/A,,Clear,150,2013-01-11 06:53:00